Artesia, NM

7:43 AM MDT on July 20, 2017 (GMT -0600)
Artesia Municipal

Weather History for KATS - March, 2013

Change the Weather History Date:

Saturday, March 23, 2013

  Actual Average Record
Temperature  
Mean Temperature 54 °F -  
Max Temperature 75 °F 73 °F 89 °F (2017)
Min Temperature 32 °F 34 °F 18 °F (1952)
Degree Days  
Heating Degree Days 12    
Growing Degree Days 4 (Base 50)    
Moisture  
Dew Point 12 °F    
Average Humidity 29    
Maximum Humidity 65    
Minimum Humidity 4    
Precipitation  
Precipitation 0.00 in - - ()
Sea Level Pressure  
Sea Level Pressure 29.78 in    
Wind  
Wind Speed 14 mph (WNW)    
Max Wind Speed 37 mph    
Max Gust Speed 51 mph    
Visibility 9 miles    
Events      
Averages and records for this station are not official NWS values.
T = Trace of Precipitation, MM = Missing Value Source: NWS Daily Summary

Daily Weather History Graph

Daily Weather History Graph

Search for Another Location

Airport or City:

Trip Planner

Search our weather history database for the weather conditions in past years. The results will help you decide how hot, cold, wet, or windy it might be!

Date:

Astronomy

Mar. 23, 2013 Rise Set
Actual Time 6:57 AM MDT 7:11 PM MDT
Civil Twilight 6:32 AM MDT 7:36 PM MDT
Nautical Twilight 6:03 AM MDT 8:05 PM MDT
Astronomical Twilight 5:34 AM MDT 8:34 PM MDT
Moon 3:50 PM MDT (3/23) 4:24 AM MDT (3/23)
Length of Visible Light 13h 03m
Length of Day
12h 14m
Waxing Gibbous, 85% of the Moon is Illuminated
Mar 23
Waxing Gibbous
Mar 27
Full
Apr 2
Last Quarter
Apr 10
New
Apr 18
First Quarter

Hourly Weather History & Observations

Time (MDT) Temp. Windchill Dew Point Humidity Pressure Visibility Wind Dir Wind Speed Gust Speed Precip Events Conditions
12:15 AM 51.8 °F - 32.0 °F 47% 29.75 in 10.0 mi NW 11.5 mph - N/A   Clear
12:35 AM 51.8 °F - 32.0 °F 47% 29.75 in 10.0 mi NW 10.4 mph - N/A   Partly Cloudy
1:15 AM 51.8 °F - 32.0 °F 47% 29.76 in 10.0 mi West 5.8 mph - N/A   Clear
1:35 AM 50.0 °F - 32.0 °F 50% 29.76 in 10.0 mi WNW 6.9 mph - N/A   Clear
1:55 AM 48.2 °F - 32.0 °F 54% 29.76 in 10.0 mi NW 8.1 mph - N/A   Clear
2:15 AM 48.2 °F - 32.0 °F 54% 29.75 in 10.0 mi WNW 5.8 mph - N/A   Partly Cloudy
2:35 AM 46.4 °F 42.9 °F 32.0 °F 57% 29.75 in 10.0 mi West 6.9 mph - N/A   Clear
2:55 AM 46.4 °F 41.5 °F 32.0 °F 57% 29.75 in 10.0 mi WNW 10.4 mph - N/A   Clear
3:15 AM 44.6 °F 40.2 °F 32.0 °F 61% 29.73 in 10.0 mi WNW 8.1 mph - N/A   Clear
3:35 AM 44.6 °F - 32.0 °F 61% 29.74 in 10.0 mi Calm Calm - N/A   Clear
3:55 AM 44.6 °F 40.7 °F 30.2 °F 57% 29.74 in 10.0 mi WNW 6.9 mph - N/A   Clear
4:15 AM 42.8 °F 39.3 °F 30.2 °F 61% 29.73 in 10.0 mi West 5.8 mph - N/A   Clear
4:35 AM 44.6 °F 42.2 °F 32.0 °F 61% 29.74 in 10.0 mi West 4.6 mph - N/A   Clear
4:55 AM 44.6 °F 43.1 °F 32.0 °F 61% 29.74 in 10.0 mi WSW 3.5 mph - N/A   Clear
5:15 AM 44.6 °F 42.2 °F 32.0 °F 61% 29.74 in 10.0 mi East 4.6 mph - N/A   Clear
5:35 AM 41.0 °F 38.0 °F 30.2 °F 65% 29.74 in 10.0 mi SW 4.6 mph - N/A   Clear
5:55 AM 41.0 °F 35.2 °F 28.4 °F 61% 29.74 in 10.0 mi SSW 9.2 mph - N/A   Clear
6:15 AM 41.0 °F 36.4 °F 28.4 °F 61% 29.74 in 10.0 mi SSE 6.9 mph - N/A   Clear
6:35 AM 39.2 °F 33.0 °F 28.4 °F 65% 29.75 in 10.0 mi South 9.2 mph - N/A   Clear
6:55 AM 41.0 °F - 28.4 °F 61% 29.76 in 10.0 mi Calm Calm - N/A   Clear
7:15 AM 39.2 °F 35.0 °F 26.6 °F 61% 29.76 in 10.0 mi WSW 5.8 mph - N/A   Clear
7:35 AM 41.0 °F 39.0 °F 28.4 °F 61% 29.78 in 10.0 mi South 3.5 mph - N/A   Clear
7:55 AM 44.6 °F 42.2 °F 28.4 °F 53% 29.78 in 10.0 mi South 4.6 mph - N/A   Clear
8:15 AM 46.4 °F 42.9 °F 32.0 °F 57% 29.78 in 10.0 mi South 6.9 mph - N/A   Clear
8:35 AM 46.4 °F 42.9 °F 33.8 °F 62% 29.78 in 10.0 mi South 6.9 mph - N/A   Clear
8:55 AM 50.0 °F - 32.0 °F 50% 29.78 in 10.0 mi South 5.8 mph - N/A   Clear
9:15 AM 51.8 °F - 32.0 °F 47% 29.78 in 10.0 mi ESE 5.8 mph - N/A   Clear
9:35 AM 55.4 °F - 32.0 °F 41% 29.78 in 10.0 mi SE 5.8 mph - N/A   Clear
9:55 AM 60.8 °F - 30.2 °F 31% 29.77 in 10.0 mi SE 4.6 mph - N/A   Clear
10:15 AM 68.0 °F - 23.0 °F 18% 29.77 in 10.0 mi West 13.8 mph 26.5 mph N/A   Clear
10:35 AM 68.0 °F - 19.4 °F 16% 29.76 in 10.0 mi West 21.9 mph 27.6 mph N/A   Clear
10:55 AM 69.8 °F - 15.8 °F 13% 29.76 in 10.0 mi West 17.3 mph 32.2 mph N/A   Clear
11:15 AM 69.8 °F - 10.4 °F 10% 29.75 in 10.0 mi West 25.3 mph 40.3 mph N/A   Clear
11:35 AM 71.6 °F - 8.6 °F 9% 29.75 in 10.0 mi WNW 24.2 mph 38.0 mph N/A   Clear
11:55 AM 71.6 °F - 8.6 °F 9% 29.74 in 10.0 mi West 24.2 mph 38.0 mph N/A   Clear
12:15 PM 71.6 °F - 8.6 °F 9% 29.73 in 10.0 mi West 25.3 mph 36.8 mph N/A   Clear
12:35 PM 73.4 °F - 6.8 °F 8% 29.73 in 10.0 mi WSW 19.6 mph 34.5 mph N/A   Clear
12:55 PM 73.4 °F - 5.0 °F 7% 29.72 in 10.0 mi West 32.2 mph 40.3 mph N/A   Clear
1:15 PM 73.4 °F - 3.2 °F 6% 29.71 in 10.0 mi West 29.9 mph 47.2 mph N/A   Clear
1:35 PM 73.4 °F - 1.4 °F 6% 29.70 in 10.0 mi West 27.6 mph 48.3 mph N/A   Clear
1:55 PM 73.4 °F - -0.4 °F 5% 29.69 in 10.0 mi West 21.9 mph 40.3 mph N/A   Clear
2:15 PM 73.4 °F - 5.0 °F 7% 29.68 in 10.0 mi West 18.4 mph 31.1 mph N/A   Clear
2:35 PM 75.2 °F - 1.4 °F 6% 29.67 in 10.0 mi West 27.6 mph 46.0 mph N/A   Clear
2:55 PM 73.4 °F - -0.4 °F 5% 29.67 in 10.0 mi WNW 28.8 mph 41.4 mph N/A   Clear
3:15 PM 75.2 °F - -0.4 °F 5% 29.65 in 10.0 mi West 26.5 mph 36.8 mph N/A   Clear
3:35 PM 75.2 °F - -0.4 °F 5% 29.65 in 9.0 mi West 24.2 mph 35.7 mph N/A   Clear
3:55 PM 75.2 °F - -4.0 °F 4% 29.65 in 9.0 mi West 28.8 mph 50.6 mph N/A   Clear
4:15 PM 75.2 °F - -4.0 °F 4% 29.64 in 9.0 mi West 33.4 mph 41.4 mph N/A   Clear
4:35 PM 73.4 °F - -2.2 °F 5% 29.65 in 10.0 mi WNW 25.3 mph 41.4 mph N/A   Clear
4:55 PM 75.2 °F - -7.6 °F 4% 29.66 in 8.0 mi NW 26.5 mph 39.1 mph N/A   Clear
5:15 PM 73.4 °F - -11.2 °F 4% 29.67 in 5.0 mi NW 33.4 mph 42.6 mph N/A   Haze
5:35 PM 71.6 °F - -14.8 °F 4% 29.69 in 4.0 mi NW 36.8 mph 48.3 mph N/A   Haze
5:55 PM 71.6 °F - -16.6 °F 4% 29.70 in 5.0 mi NW 34.5 mph 42.6 mph N/A   Haze
6:15 PM 68.0 °F - -13.0 °F 4% 29.73 in 5.0 mi NW 27.6 mph 47.2 mph N/A   Haze
6:35 PM 66.2 °F - -13.0 °F 4% 29.75 in 7.0 mi NNW 27.6 mph 35.7 mph N/A   Clear
6:55 PM 64.4 °F - -11.2 °F 5% 29.77 in 9.0 mi NNW 24.2 mph 32.2 mph N/A   Clear
7:15 PM 62.6 °F - -9.4 °F 5% 29.79 in 10.0 mi North 31.1 mph 34.5 mph N/A   Clear
7:35 PM 57.2 °F - -4.0 °F 8% 29.83 in 4.0 mi North 31.1 mph 46.0 mph N/A   Haze
7:55 PM 53.6 °F - -7.6 °F 8% 29.86 in 5.0 mi North 34.5 mph 44.9 mph N/A   Haze
8:15 PM 50.0 °F - -11.2 °F 8% 29.88 in 5.0 mi North 36.8 mph 44.9 mph N/A   Haze
8:35 PM 50.0 °F - -13.0 °F 7% 29.90 in 5.0 mi North 36.8 mph 42.6 mph N/A   Haze
8:55 PM 48.2 °F - -13.0 °F 7% 29.94 in 6.0 mi North 32.2 mph 44.9 mph N/A   Haze
9:15 PM 46.4 °F 37.5 °F -13.0 °F 8% 29.97 in 8.0 mi North 27.6 mph 36.8 mph N/A   Clear
9:35 PM 46.4 °F 37.0 °F -11.2 °F 9% 29.99 in 8.0 mi North 31.1 mph 38.0 mph N/A   Clear
9:55 PM 41.0 °F 29.7 °F 6.8 °F 24% 30.03 in 3.0 mi NNE 31.1 mph 38.0 mph N/A   Haze
10:15 PM 37.4 °F 24.0 °F 8.6 °F 30% 30.04 in 4.0 mi NNE 35.7 mph 43.7 mph N/A   Haze
10:35 PM 35.6 °F 22.1 °F 8.6 °F 33% 30.06 in 5.0 mi NNE 32.2 mph 39.1 mph N/A   Haze
10:55 PM 33.8 °F 20.5 °F 8.6 °F 35% 30.08 in 6.0 mi NNE 27.6 mph 34.5 mph N/A   Haze
11:15 PM 32.0 °F 18.6 °F 6.8 °F 35% 30.11 in 7.0 mi NNE 25.3 mph 33.4 mph N/A   Clear
11:35 PM 32.0 °F 19.2 °F 6.8 °F 35% 30.14 in 9.0 mi NNE 23.0 mph 31.1 mph N/A   Clear
11:55 PM 32.0 °F 22.5 °F 6.8 °F 35% 30.16 in 9.0 mi North 12.7 mph - N/A   Clear